EW5319 Weather Reports


time (UTC)temp
F
wind
direction
speed
knots
gust
knots
rain 1hr
in
rain 24hr
in
rain mn
in
humidity
%
barometer
mb
20260510055033 53 359 3.5 7.0 0.00 0.21 0.00 28 1003.2
20260510054103 53 9 1.7 4.3 0.00 0.21 0.00 25 1003.6
20260510053102 53 324 0.9 2.6 0.00 0.21 0.00 25 1003.7
20260510052031 54 340 2.6 6.1 0.00 0.21 0.00 23 1003.2
20260510051031 54 306 3.5 7.0 0.00 0.21 0.00 20 1002.7
20260510050030 54 337 4.3 9.6 0.00 0.21 0.00 16 1001.8
20260510045029 56 351 5.2 10.4 0.00 0.21 0.00 13 1001.7
20260510044027 56 332 5.2 13.0 0.00 0.21 0.00 3 1002.2
20260510043026 56 300 0.9 2.6 0.00 0.21 0.00 1 1001.4
20260510042026 56 293 0.9 2.6 0.00 0.21 0.00 1 1001.0
20260510041026 55 210 2.6 6.1 0.00 0.21 0.00 1 1000.9
20260510040145 55 158 0.0 0.9 0.00 0.21 0.00 1 1000.9
20260510035053 55 135 0.9 2.6 0.00 0.21 0.21 1 1000.7
20260510034053 54 0.0 0.0 0.00 0.21 0.21 1 1000.4
20260510033022 55 135 0.0 0.9 0.00 0.21 0.21 2 1000.3
20260510032041 55 174 0.0 2.6 0.00 0.21 0.21 3 1000.4
20260510031049 55 208 0.9 4.3 0.00 0.21 0.21 6 1000.1
20260510030049 55 179 0.9 2.6 0.00 0.21 0.21 8 1000.1
20260510025048 55 90 0.0 0.9 0.00 0.21 0.21 11 1000.1
20260510024047 55 90 0.0 0.9 0.00 0.21 0.21 12 999.8
20260510023016 56 84 0.9 2.6 0.00 0.21 0.21 13 1000.0
20260510022045 56 191 0.9 2.6 0.00 0.21 0.21 13 1000.0
20260510021124 56 210 0.9 2.6 0.00 0.22 0.21 13 1000.2
20260510015131 56 189 1.7 3.5 0.00 0.22 0.21 13 1000.0
20260510014040 57 201 1.7 7.0 0.00 0.22 0.21 15 999.7
20260510013039 57 216 1.7 3.5 0.00 0.22 0.21 13 999.5
20260510012039 57 192 2.6 4.3 0.00 0.22 0.21 12 999.3
20260510011038 57 215 2.6 4.3 0.00 0.22 0.21 9 999.3
20260510010037 57 219 1.7 6.1 0.00 0.22 0.21 9 999.3
20260510005107 57 197 2.6 6.1 0.00 0.22 0.21 6 999.3
20260510004036 57 204 3.5 13.9 0.00 0.22 0.21 3 999.3
20260510003146 57 181 2.6 7.0 0.00 0.24 0.21 3 999.3
20260510002035 57 206 1.7 9.6 0.00 0.25 0.21 2 999.1
20260510001034 57 204 1.7 4.3 0.00 0.25 0.21 6 999.0
20260510000104 57 176 1.7 6.1 0.01 0.25 0.21 11 999.0
20260509235103 57 270 0.9 3.5 0.04 0.25 0.21 14 999.0
20260509234052 57 205 0.9 3.5 0.09 0.25 0.21 17 998.7
20260509233052 57 212 1.7 6.1 0.18 0.25 0.21 17 998.9
20260509232031 57 163 2.6 8.7 0.21 0.25 0.21 21 998.8
20260509231030 57 163 3.5 6.1 0.21 0.25 0.21 27 999.0
20260509230030 57 219 2.6 8.7 0.20 0.24 0.20 34 999.6
20260509225029 58 237 2.6 7.0 0.17 0.21 0.17 42 999.7
20260509224028 60 256 4.3 12.2 0.12 0.16 0.12 50 999.7
20260509223048 65 197 5.2 16.5 0.03 0.07 0.03 58 999.4
20260509222027 69 252 3.5 9.6 0.00 0.04 0.00 52 997.2
20260509221056 69 189 3.5 7.0 0.00 0.04 0.00 51 996.4
20260509220025 70 161 5.2 12.2 0.00 0.04 0.00 51 996.3
20260509215054 70 216 6.1 15.6 0.00 0.04 0.00 52 996.2
20260509214024 70 183 7.0 18.2 0.00 0.04 0.00 52 996.1
20260509213052 70 201 3.5 8.7 0.00 0.04 0.00 53 995.8
20260509212052 71 182 5.2 12.2 0.00 0.04 0.00 52 995.9
20260509211051 71 174 6.1 13.9 0.00 0.04 0.00 51 996.1
20260509210020 71 190 6.1 13.9 0.00 0.04 0.00 52 996.0
20260509205049 71 179 6.1 12.2 0.00 0.04 0.00 53 996.6
20260509204048 71 192 6.1 12.2 0.00 0.04 0.00 52 996.8
20260509203047 71 196 6.1 13.0 0.00 0.04 0.00 52 996.9
20260509202046 71 178 4.3 12.2 0.00 0.04 0.00 53 996.8
20260509201045 71 176 5.2 12.2 0.00 0.04 0.00 53 997.3
20260509200045 71 190 5.2 16.5 0.00 0.04 0.00 53 997.4
20260509195044 72 185 5.2 13.0 0.00 0.04 0.00 51 997.5
20260509194043 72 163 6.1 16.5 0.00 0.04 0.00 52 997.6
20260509193042 72 203 7.0 15.6 0.00 0.04 0.00 53 997.7
20260509192102 70 180 4.3 10.4 0.00 0.04 0.00 54 997.8
20260509191041 71 188 6.1 12.2 0.00 0.04 0.00 54 998.2
20260509190040 71 197 4.3 10.4 0.00 0.04 0.00 54 998.2
20260509185040 71 194 5.2 10.4 0.00 0.04 0.00 54 998.4
20260509184039 71 200 4.3 10.4 0.00 0.04 0.00 54 998.3
20260509183039 72 157 5.2 13.0 0.00 0.04 0.00 54 998.4
20260509182038 71 174 4.3 15.6 0.00 0.04 0.00 56 998.2
20260509181057 70 195 4.3 9.6 0.00 0.04 0.00 56 998.3
20260509180036 70 192 3.5 10.4 0.00 0.04 0.00 57 998.4
20260509175035 70 219 5.2 13.0 0.00 0.04 0.00 57 998.5
20260509174035 69 153 6.1 13.9 0.00 0.04 0.00 57 998.5
20260509173034 68 208 4.3 9.6 0.00 0.04 0.00 56 998.5
20260509172053 68 214 3.5 8.7 0.00 0.04 0.00 52 998.7
20260509171103 67 226 2.6 6.1 0.00 0.04 0.00 52 998.7
20260509170052 68 245 3.5 7.0 0.00 0.04 0.00 49 998.9
20260509165031 67 222 4.3 8.7 0.00 0.04 0.00 52 999.1
20260509164030 67 218 3.5 10.4 0.00 0.04 0.00 47 999.3
20260509163030 66 234 2.6 7.0 0.00 0.04 0.00 45 999.1
20260509162029 65 216 4.3 10.4 0.00 0.04 0.00 47 999.1
20260509161028 65 170 4.3 13.0 0.00 0.04 0.00 40 999.6
20260509160108 64 213 5.2 8.7 0.00 0.04 0.00 39 999.8
20260509155027 64 214 5.2 12.2 0.00 0.04 0.00 36 1000.0
20260509154026 63 227 3.5 9.6 0.00 0.04 0.00 31 1000.0
20260509153025 63 221 4.3 9.6 0.00 0.04 0.00 31 999.7
20260509152024 62 227 6.1 13.0 0.00 0.04 0.00 27 999.9
20260509151114 62 211 3.5 8.7 0.00 0.04 0.00 23 999.9
20260509150053 62 242 3.5 10.4 0.00 0.04 0.00 23 999.8
20260509145113 62 230 3.5 7.0 0.00 0.04 0.00 19 1000.0
20260509144021 61 216 2.6 7.0 0.00 0.04 0.00 12 999.8
20260509143020 60 223 4.3 12.2 0.00 0.04 0.00 9 1000.0
20260509142020 59 202 5.2 13.0 0.00 0.04 0.00 9 999.9
20260509141129 58 205 4.3 9.6 0.00 0.04 0.00 8 1000.0
20260509140128 59 201 2.6 9.6 0.00 0.04 0.00 2 999.9
20260509135047 58 229 2.6 7.0 0.00 0.04 0.00 1 999.9
20260509134046 58 220 1.7 2.6 0.00 0.04 0.00 1 1000.1
20260509133044 58 178 2.6 4.3 0.00 0.04 0.00 1 1000.0
20260509132044 57 206 1.7 3.5 0.00 0.04 0.00 1 1000.0
20260509131043 57 189 2.6 6.1 0.00 0.04 0.00 1 1000.2
20260509130042 57 195 1.7 3.5 0.00 0.04 0.00 1 1000.1
20260509125041 57 163 1.7 6.1 0.00 0.04 0.00 1 1000.1
20260509124040 56 177 1.7 3.5 0.00 0.04 0.00 1 1000.0
20260509123040 56 192 2.6 6.1 0.00 0.04 0.00 1 1000.1
20260509122039 56 191 2.6 4.3 0.00 0.04 0.00 1 1000.3
20260509121058 55 183 1.7 4.3 0.00 0.04 0.00 1 1000.3
20260509120038 55 184 1.7 4.3 0.00 0.04 0.00 1 1000.3
20260509115037 55 192 0.9 3.5 0.00 0.04 0.00 1 1000.4
20260509114106 55 148 1.7 6.1 0.00 0.04 0.00 1 1000.4
20260509113036 55 178 0.9 4.3 0.00 0.04 0.00 1 1000.2
20260509112035 54 182 2.6 3.5 0.00 0.04 0.00 1 1000.2
20260509111035 54 181 1.7 3.5 0.00 0.04 0.00 1 1000.1
20260509110033 54 157 1.7 6.1 0.00 0.04 0.00 1 1000.1
20260509105033 54 192 0.0 2.6 0.00 0.04 0.00 1 1000.1
20260509104143 54 140 0.9 2.6 0.00 0.04 0.00 1 1000.1
20260509103032 54 201 0.9 3.5 0.00 0.04 0.00 1 1000.3
20260509102030 54 174 0.9 3.5 0.00 0.04 0.00 1 1000.1
20260509101050 53 218 0.0 2.6 0.00 0.04 0.00 1 1000.3
20260509100059 53 193 0.9 2.6 0.00 0.04 0.00 1 1000.3
20260509095028 53 225 0.0 0.9 0.00 0.04 0.00 1 1000.4
20260509094217 54 0.0 0.0 0.00 0.04 0.00 1 1000.3
20260509093026 54 225 0.0 0.9 0.00 0.04 0.00 1 1000.1
20260509092055 54 165 0.9 3.5 0.00 0.04 0.00 1 1000.4
20260509091025 54 190 0.9 4.3 0.00 0.04 0.00 1 1000.3
20260509090024 54 170 0.9 3.5 0.00 0.04 0.00 1 1000.5
20260509085052 54 131 0.9 2.6 0.00 0.04 0.00 1 1000.6
20260509084022 54 174 1.7 4.3 0.00 0.04 0.00 1 1000.7
20260509083051 54 175 1.7 4.3 0.00 0.04 0.00 1 1001.0
20260509082110 54 190 1.7 4.3 0.00 0.04 0.00 1 1000.7
20260509081049 54 166 1.7 4.3 0.00 0.04 0.00 1 1000.8
20260509080018 54 172 0.9 3.5 0.00 0.04 0.00 1 1000.7
20260509075048 54 180 0.9 3.5 0.00 0.04 0.00 1 1000.7
20260509074047 54 174 0.9 2.6 0.00 0.04 0.00 1 1000.7
20260509073045 53 142 1.7 4.3 0.00 0.04 0.00 1 1000.8
20260509072044 53 191 0.9 4.3 0.00 0.04 0.00 1 1000.9
20260509071043 53 187 0.9 4.3 0.00 0.04 0.00 1 1001.1
20260509065042 53 168 0.9 2.6 0.00 0.04 0.00 1 1001.1
20260509064041 53 176 2.6 7.0 0.00 0.04 0.00 1 1001.3
20260509063040 53 184 2.6 8.7 0.00 0.04 0.00 1 1001.3
20260509062040 53 137 2.6 6.1 0.00 0.04 0.00 1 1001.3
20260509061039 53 173 2.6 7.0 0.00 0.04 0.00 1 1001.4
20260509060058 54 169 1.7 4.3 0.00 0.04 0.00 1 1001.5